| time (UTC) | temp C | wind direction | speed KPH | gust KPH | rain 1hr cm | rain 24hr cm | rain mn cm | humidity % | barometer mb |
| 20260507021503 | 10 | 0 | 0.0 | 0.0 | 0.00 | 0.00 | 0.00 | 94 | 1006.9 |
| 20260507021003 | 10 | 246 | 0.0 | 1.6 | 0.00 | 0.00 | 0.00 | 93 | 1006.9 |
| 20260507020503 | 11 | 246 | 0.0 | 1.6 | 0.00 | 0.00 | 0.00 | 92 | 1006.8 |
| 20260507020025 | 11 | 246 | 0.0 | 1.6 | 0.00 | 0.00 | 0.00 | 92 | 1007.2 |
| 20260507015503 | 11 | 246 | 0.0 | 1.6 | 0.00 | 0.00 | 0.00 | 91 | 1006.7 |
| 20260507015004 | 11 | 246 | 0.0 | 1.6 | 0.00 | 0.00 | 0.00 | 91 | 1006.5 |
| 20260507014503 | 11 | 246 | 0.0 | 1.6 | 0.00 | 0.00 | 0.00 | 91 | 1006.7 |
| 20260507014003 | 11 | 246 | 0.0 | 1.6 | 0.00 | 0.00 | 0.00 | 92 | 1006.6 |
| 20260507013524 | 11 | 0 | 0.0 | 0.0 | 0.00 | 0.00 | 0.00 | 93 | 1006.5 |
| 20260507013004 | 11 | 245 | 0.0 | 1.6 | 0.00 | 0.00 | 0.00 | 92 | 1006.5 |
| 20260507012503 | 11 | 243 | 0.0 | 1.6 | 0.00 | 0.00 | 0.00 | 92 | 1006.5 |
| 20260507012003 | 11 | 243 | 0.0 | 1.6 | 0.00 | 0.00 | 0.00 | 91 | 1006.3 |
| 20260507011503 | 11 | 245 | 0.0 | 1.6 | 0.00 | 0.00 | 0.00 | 90 | 1006.3 |
| 20260507011003 | 12 | 247 | 0.0 | 1.6 | 0.00 | 0.00 | 0.00 | 89 | 1006.0 |
| 20260507010503 | 12 | 247 | 0.0 | 1.6 | 0.00 | 0.00 | 0.00 | 88 | 1005.9 |
| 20260507010024 | 12 | 248 | 0.0 | 1.6 | 0.00 | 0.00 | 0.00 | 88 | 1005.9 |
| 20260507005503 | 12 | 249 | 0.0 | 1.6 | 0.00 | 0.00 | 0.00 | 87 | 1006.0 |
| 20260507005003 | 12 | 251 | 0.0 | 1.6 | 0.00 | 0.00 | 0.00 | 88 | 1006.0 |
| 20260507004503 | 12 | 251 | 0.0 | 1.6 | 0.00 | 0.00 | 0.00 | 89 | 1005.8 |
| 20260507004003 | 12 | 251 | 0.0 | 1.6 | 0.00 | 0.00 | 0.00 | 89 | 1005.8 |
| 20260507003503 | 12 | 251 | 0.0 | 1.6 | 0.00 | 0.00 | 0.00 | 89 | 1005.8 |
| 20260507003003 | 12 | 0 | 0.0 | 0.0 | 0.00 | 0.00 | 0.00 | 89 | 1005.5 |
| 20260507002524 | 12 | 0 | 0.0 | 0.0 | 0.00 | 0.00 | 0.00 | 89 | 1005.3 |
| 20260507002025 | 11 | 0 | 0.0 | 0.0 | 0.00 | 0.00 | 0.00 | 88 | 1005.4 |
| 20260507001503 | 12 | 0 | 0.0 | 0.0 | 0.00 | 0.00 | 0.00 | 88 | 1005.3 |
| 20260507001003 | 12 | 0 | 0.0 | 0.0 | 0.00 | 0.00 | 0.00 | 88 | 1005.2 |
| 20260507000525 | 12 | 0 | 0.0 | 0.0 | 0.00 | 0.00 | 0.00 | 87 | 1005.2 |
| 20260507000004 | 12 | 256 | 0.0 | 1.6 | 0.00 | 0.00 | 0.00 | 87 | 1005.1 |
| 20260506235503 | 12 | 256 | 0.0 | 1.6 | 0.00 | 0.00 | 0.00 | 87 | 1005.2 |
| 20260506235003 | 12 | 0 | 0.0 | 0.0 | 0.00 | 0.00 | 0.00 | 86 | 1005.3 |
| 20260506234504 | 12 | 256 | 0.0 | 1.6 | 0.00 | 0.00 | 0.00 | 85 | 1004.9 |
| 20260506234024 | 12 | 256 | 0.0 | 1.6 | 0.00 | 0.00 | 0.00 | 85 | 1004.6 |
| 20260506233503 | 13 | 257 | 0.0 | 3.2 | 0.00 | 0.00 | 0.00 | 83 | 1004.5 |
| 20260506233025 | 13 | 256 | 1.6 | 3.2 | 0.00 | 0.00 | 0.00 | 82 | 1004.3 |
| 20260506232503 | 14 | 259 | 1.6 | 3.2 | 0.00 | 0.00 | 0.00 | 80 | 1004.6 |
| 20260506232003 | 14 | 262 | 1.6 | 4.8 | 0.00 | 0.00 | 0.00 | 79 | 1004.4 |
| 20260506231503 | 14 | 260 | 1.6 | 4.8 | 0.00 | 0.00 | 0.00 | 79 | 1004.4 |
| 20260506231024 | 14 | 255 | 1.6 | 4.8 | 0.00 | 0.00 | 0.00 | 79 | 1004.5 |
| 20260506230504 | 14 | 245 | 1.6 | 4.8 | 0.00 | 0.00 | 0.00 | 78 | 1004.6 |
| 20260506230003 | 14 | 236 | 1.6 | 4.8 | 0.00 | 0.00 | 0.00 | 78 | 1004.5 |
| 20260506225503 | 14 | 200 | 1.6 | 4.8 | 0.00 | 0.00 | 0.00 | 78 | 1004.5 |
| 20260506225003 | 15 | 166 | 0.0 | 3.2 | 0.00 | 0.00 | 0.00 | 77 | 1004.2 |
| 20260506224504 | 15 | 218 | 0.0 | 1.6 | 0.00 | 0.00 | 0.00 | 77 | 1004.6 |
| 20260506224003 | 15 | 233 | 0.0 | 1.6 | 0.00 | 0.00 | 0.00 | 77 | 1004.4 |
| 20260506223503 | 15 | 232 | 0.0 | 1.6 | 0.00 | 0.00 | 0.00 | 76 | 1004.3 |
| 20260506223003 | 15 | 198 | 0.0 | 4.8 | 0.00 | 0.00 | 0.00 | 75 | 1004.1 |
| 20260506222504 | 15 | 211 | 1.6 | 4.8 | 0.00 | 0.00 | 0.00 | 74 | 1004.0 |
| 20260506222003 | 15 | 225 | 1.6 | 4.8 | 0.00 | 0.00 | 0.00 | 74 | 1004.2 |
| 20260506221504 | 16 | 217 | 1.6 | 4.8 | 0.00 | 0.00 | 0.00 | 73 | 1004.2 |
| 20260506221003 | 16 | 195 | 1.6 | 4.8 | 0.00 | 0.00 | 0.00 | 73 | 1004.0 |
| 20260506220503 | 16 | 148 | 1.6 | 6.4 | 0.00 | 0.00 | 0.00 | 73 | 1004.0 |
| 20260506220004 | 16 | 130 | 1.6 | 9.7 | 0.00 | 0.00 | 0.00 | 72 | 1004.1 |
| 20260506215503 | 16 | 186 | 1.6 | 9.7 | 0.00 | 0.00 | 0.00 | 72 | 1004.1 |
| 20260506215004 | 16 | 181 | 1.6 | 6.4 | 0.00 | 0.00 | 0.00 | 71 | 1004.1 |
| 20260506214503 | 16 | 203 | 1.6 | 6.4 | 0.00 | 0.00 | 0.00 | 71 | 1004.1 |
| 20260506214003 | 16 | 231 | 3.2 | 6.4 | 0.00 | 0.00 | 0.00 | 70 | 1004.1 |
| 20260506213503 | 16 | 232 | 1.6 | 6.4 | 0.00 | 0.00 | 0.00 | 70 | 1004.0 |
| 20260506213003 | 16 | 238 | 1.6 | 9.7 | 0.00 | 0.00 | 0.00 | 70 | 1003.9 |
| 20260506212503 | 16 | 225 | 3.2 | 9.7 | 0.00 | 0.00 | 0.00 | 69 | 1003.6 |
| 20260506212024 | 16 | 207 | 1.6 | 9.7 | 0.00 | 0.00 | 0.00 | 69 | 1003.6 |
| 20260506211524 | 17 | 206 | 1.6 | 4.8 | 0.00 | 0.00 | 0.00 | 68 | 1003.8 |
| 20260506211024 | 17 | 227 | 1.6 | 9.7 | 0.00 | 0.00 | 0.00 | 68 | 1003.7 |
| 20260506210503 | 17 | 225 | 3.2 | 14.5 | 0.00 | 0.00 | 0.00 | 67 | 1003.7 |
| 20260506210004 | 17 | 225 | 4.8 | 14.5 | 0.00 | 0.00 | 0.00 | 67 | 1003.4 |
| 20260506205524 | 17 | 216 | 3.2 | 14.5 | 0.00 | 0.00 | 0.00 | 67 | 1003.6 |
| 20260506205024 | 17 | 193 | 1.6 | 12.9 | 0.00 | 0.00 | 0.00 | 67 | 1003.6 |
| 20260506204503 | 17 | 182 | 3.2 | 12.9 | 0.00 | 0.00 | 0.00 | 66 | 1003.8 |
| 20260506204003 | 17 | 181 | 3.2 | 9.7 | 0.00 | 0.00 | 0.00 | 66 | 1003.4 |
| 20260506203503 | 17 | 209 | 3.2 | 9.7 | 0.00 | 0.00 | 0.00 | 65 | 1003.6 |
| 20260506203004 | 17 | 209 | 1.6 | 6.4 | 0.00 | 0.00 | 0.00 | 66 | 1003.3 |
| 20260506202503 | 17 | 212 | 3.2 | 14.5 | 0.00 | 0.00 | 0.00 | 65 | 1003.4 |
| 20260506202004 | 17 | 201 | 4.8 | 16.1 | 0.00 | 0.00 | 0.00 | 64 | 1003.5 |
| 20260506201503 | 17 | 205 | 4.8 | 16.1 | 0.00 | 0.00 | 0.00 | 64 | 1003.7 |
| 20260506201003 | 18 | 224 | 3.2 | 11.3 | 0.00 | 0.00 | 0.00 | 63 | 1003.7 |
| 20260506200504 | 18 | 227 | 3.2 | 11.3 | 0.00 | 0.00 | 0.00 | 63 | 1003.7 |
| 20260506200004 | 18 | 219 | 3.2 | 11.3 | 0.00 | 0.00 | 0.00 | 63 | 1003.6 |
| 20260506195503 | 18 | 208 | 3.2 | 11.3 | 0.00 | 0.00 | 0.00 | 62 | 1003.6 |
| 20260506195004 | 18 | 213 | 4.8 | 16.1 | 0.00 | 0.00 | 0.00 | 62 | 1003.3 |
| 20260506194503 | 18 | 212 | 4.8 | 16.1 | 0.00 | 0.00 | 0.00 | 61 | 1003.2 |
| 20260506194003 | 18 | 207 | 3.2 | 12.9 | 0.00 | 0.00 | 0.00 | 61 | 1003.2 |
| 20260506193503 | 18 | 224 | 3.2 | 12.9 | 0.00 | 0.00 | 0.00 | 60 | 1003.3 |
| 20260506193003 | 18 | 218 | 4.8 | 12.9 | 0.00 | 0.00 | 0.00 | 60 | 1003.2 |
| 20260506192525 | 18 | 213 | 4.8 | 12.9 | 0.00 | 0.00 | 0.00 | 60 | 1003.3 |
| 20260506192003 | 18 | 211 | 3.2 | 12.9 | 0.00 | 0.00 | 0.00 | 59 | 1003.1 |
| 20260506191524 | 18 | 208 | 3.2 | 14.5 | 0.00 | 0.00 | 0.00 | 59 | 1003.0 |
| 20260506191004 | 18 | 193 | 4.8 | 14.5 | 0.00 | 0.00 | 0.00 | 59 | 1003.1 |
| 20260506190524 | 18 | 200 | 3.2 | 14.5 | 0.00 | 0.00 | 0.00 | 59 | 1003.1 |
| 20260506190025 | 19 | 215 | 4.8 | 20.9 | 0.00 | 0.00 | 0.00 | 58 | 1003.1 |
| 20260506185504 | 19 | 206 | 4.8 | 20.9 | 0.00 | 0.00 | 0.00 | 58 | 1003.2 |
| 20260506185004 | 19 | 169 | 4.8 | 20.9 | 0.00 | 0.00 | 0.00 | 57 | 1003.2 |
| 20260506184503 | 19 | 155 | 3.2 | 12.9 | 0.00 | 0.00 | 0.00 | 57 | 1003.1 |
| 20260506184003 | 19 | 184 | 3.2 | 12.9 | 0.00 | 0.00 | 0.00 | 57 | 1003.1 |
| 20260506183524 | 20 | 211 | 3.2 | 12.9 | 0.00 | 0.00 | 0.00 | 57 | 1003.1 |
| 20260506183025 | 20 | 206 | 3.2 | 6.4 | 0.00 | 0.00 | 0.00 | 56 | 1003.0 |
| 20260506182504 | 20 | 207 | 3.2 | 6.4 | 0.00 | 0.00 | 0.00 | 56 | 1002.9 |
| 20260506182003 | 20 | 211 | 3.2 | 12.9 | 0.00 | 0.00 | 0.00 | 56 | 1002.9 |
| 20260506181503 | 20 | 190 | 3.2 | 16.1 | 0.00 | 0.00 | 0.00 | 55 | 1002.8 |
| 20260506181004 | 20 | 206 | 4.8 | 16.1 | 0.00 | 0.00 | 0.00 | 55 | 1002.9 |
| 20260506180524 | 20 | 206 | 4.8 | 22.5 | 0.00 | 0.00 | 0.00 | 55 | 1003.0 |
| 20260506180005 | 20 | 198 | 4.8 | 22.5 | 0.00 | 0.00 | 0.00 | 54 | 1002.7 |
| 20260506175503 | 20 | 184 | 6.4 | 16.1 | 0.00 | 0.00 | 0.00 | 54 | 1002.7 |
| 20260506175004 | 20 | 201 | 8.0 | 17.7 | 0.00 | 0.00 | 0.00 | 53 | 1002.6 |
| 20260506174503 | 21 | 229 | 6.4 | 17.7 | 0.00 | 0.00 | 0.00 | 52 | 1002.8 |
| 20260506174004 | 21 | 217 | 6.4 | 14.5 | 0.00 | 0.00 | 0.00 | 52 | 1003.0 |
| 20260506173503 | 21 | 203 | 4.8 | 12.9 | 0.00 | 0.00 | 0.00 | 52 | 1002.6 |
| 20260506173004 | 21 | 213 | 6.4 | 20.9 | 0.00 | 0.00 | 0.00 | 52 | 1002.8 |
| 20260506172503 | 21 | 222 | 6.4 | 20.9 | 0.00 | 0.00 | 0.00 | 51 | 1002.7 |
| 20260506172003 | 21 | 214 | 4.8 | 17.7 | 0.00 | 0.00 | 0.00 | 51 | 1002.8 |
| 20260506171504 | 21 | 189 | 4.8 | 17.7 | 0.00 | 0.00 | 0.00 | 50 | 1002.8 |
| 20260506171003 | 21 | 195 | 4.8 | 17.7 | 0.00 | 0.00 | 0.00 | 50 | 1002.8 |
| 20260506170503 | 21 | 200 | 3.2 | 14.5 | 0.00 | 0.00 | 0.00 | 50 | 1002.9 |
| 20260506170004 | 21 | 194 | 3.2 | 14.5 | 0.00 | 0.00 | 0.00 | 49 | 1002.9 |
| 20260506165503 | 22 | 219 | 3.2 | 17.7 | 0.00 | 0.00 | 0.00 | 48 | 1002.7 |
| 20260506165003 | 22 | 237 | 4.8 | 17.7 | 0.00 | 0.00 | 0.00 | 48 | 1002.8 |
| 20260506164524 | 22 | 228 | 4.8 | 17.7 | 0.00 | 0.00 | 0.00 | 48 | 1002.7 |
| 20260506164003 | 22 | 215 | 4.8 | 14.5 | 0.00 | 0.00 | 0.00 | 48 | 1002.9 |
| 20260506163503 | 22 | 215 | 4.8 | 14.5 | 0.00 | 0.00 | 0.00 | 47 | 1002.6 |
| 20260506163003 | 22 | 204 | 4.8 | 14.5 | 0.00 | 0.00 | 0.00 | 47 | 1002.9 |
| 20260506162524 | 22 | 199 | 4.8 | 14.5 | 0.00 | 0.00 | 0.00 | 47 | 1002.6 |
| 20260506162004 | 22 | 204 | 4.8 | 16.1 | 0.00 | 0.00 | 0.00 | 47 | 1003.1 |
| 20260506161504 | 22 | 221 | 6.4 | 20.9 | 0.00 | 0.00 | 0.00 | 47 | 1003.1 |
| 20260506161004 | 22 | 210 | 6.4 | 20.9 | 0.00 | 0.00 | 0.00 | 47 | 1003.0 |
| 20260506160504 | 22 | 193 | 6.4 | 22.5 | 0.00 | 0.00 | 0.00 | 47 | 1003.4 |
| 20260506160025 | 22 | 224 | 6.4 | 22.5 | 0.00 | 0.00 | 0.00 | 46 | 1003.2 |
| 20260506155504 | 22 | 229 | 6.4 | 22.5 | 0.00 | 0.00 | 0.00 | 46 | 1003.5 |
| 20260506155003 | 23 | 224 | 4.8 | 14.5 | 0.00 | 0.00 | 0.00 | 46 | 1003.3 |
| 20260506154504 | 23 | 205 | 4.8 | 14.5 | 0.00 | 0.00 | 0.00 | 45 | 1003.4 |
| 20260506154003 | 23 | 205 | 6.4 | 14.5 | 0.00 | 0.00 | 0.00 | 47 | 1003.6 |
| 20260506153504 | 23 | 206 | 4.8 | 14.5 | 0.00 | 0.00 | 0.00 | 45 | 1003.6 |
| 20260506153003 | 23 | 196 | 4.8 | 17.7 | 0.00 | 0.00 | 0.00 | 46 | 1003.7 |
| 20260506152524 | 23 | 215 | 6.4 | 20.9 | 0.00 | 0.00 | 0.00 | 46 | 1003.8 |
| 20260506152003 | 23 | 235 | 6.4 | 20.9 | 0.00 | 0.00 | 0.00 | 46 | 1003.6 |
| 20260506151504 | 23 | 221 | 4.8 | 16.1 | 0.00 | 0.00 | 0.00 | 46 | 1003.8 |
| 20260506151024 | 22 | 199 | 4.8 | 16.1 | 0.00 | 0.00 | 0.00 | 49 | 1003.9 |
| 20260506150504 | 22 | 202 | 4.8 | 16.1 | 0.00 | 0.00 | 0.00 | 49 | 1004.3 |
| 20260506150004 | 22 | 187 | 4.8 | 16.1 | 0.00 | 0.00 | 0.00 | 49 | 1004.0 |
| 20260506145503 | 22 | 200 | 6.4 | 16.1 | 0.00 | 0.00 | 0.00 | 49 | 1004.5 |
| 20260506145003 | 22 | 231 | 6.4 | 17.7 | 0.00 | 0.00 | 0.00 | 50 | 1004.3 |
| 20260506144503 | 22 | 233 | 4.8 | 17.7 | 0.00 | 0.00 | 0.00 | 49 | 1004.0 |
| 20260506144024 | 22 | 211 | 4.8 | 17.7 | 0.00 | 0.00 | 0.00 | 49 | 1004.5 |
| 20260506143504 | 22 | 202 | 4.8 | 16.1 | 0.00 | 0.00 | 0.00 | 50 | 1004.3 |
| 20260506143003 | 22 | 162 | 4.8 | 16.1 | 0.00 | 0.00 | 0.00 | 50 | 1004.4 |
| 20260506142503 | 22 | 125 | 4.8 | 16.1 | 0.00 | 0.00 | 0.00 | 52 | 1004.3 |
| 20260506142003 | 21 | 135 | 4.8 | 16.1 | 0.00 | 0.00 | 0.00 | 52 | 1004.3 |
| 20260506141503 | 21 | 184 | 4.8 | 16.1 | 0.00 | 0.00 | 0.00 | 51 | 1004.2 |
| 20260506141003 | 21 | 192 | 4.8 | 16.1 | 0.00 | 0.00 | 0.00 | 51 | 1004.4 |
| 20260506140503 | 21 | 213 | 4.8 | 17.7 | 0.00 | 0.00 | 0.00 | 51 | 1004.4 |
| 20260506140004 | 21 | 229 | 8.0 | 17.7 | 0.00 | 0.00 | 0.00 | 50 | 1004.8 |
| 20260506135504 | 22 | 202 | 6.4 | 17.7 | 0.00 | 0.00 | 0.00 | 50 | 1004.5 |
| 20260506135004 | 22 | 121 | 3.2 | 17.7 | 0.00 | 0.00 | 0.00 | 51 | 1004.6 |
| 20260506134504 | 22 | 113 | 3.2 | 6.4 | 0.00 | 0.00 | 0.00 | 49 | 1004.6 |
| 20260506134024 | 23 | 166 | 3.2 | 6.4 | 0.00 | 0.00 | 0.00 | 49 | 1004.6 |
| 20260506133503 | 22 | 189 | 3.2 | 14.5 | 0.00 | 0.00 | 0.00 | 48 | 1004.8 |
| 20260506133004 | 21 | 198 | 4.8 | 14.5 | 0.00 | 0.00 | 0.00 | 49 | 1004.9 |
| 20260506132503 | 21 | 204 | 4.8 | 14.5 | 0.00 | 0.00 | 0.00 | 49 | 1004.9 |
| 20260506132004 | 21 | 204 | 3.2 | 16.1 | 0.00 | 0.00 | 0.00 | 49 | 1005.0 |
| 20260506131504 | 21 | 217 | 4.8 | 16.1 | 0.00 | 0.00 | 0.00 | 49 | 1005.3 |
| 20260506131003 | 22 | 223 | 4.8 | 16.1 | 0.00 | 0.00 | 0.00 | 48 | 1005.1 |
| 20260506130503 | 22 | 224 | 3.2 | 16.1 | 0.00 | 0.00 | 0.00 | 47 | 1005.6 |
| 20260506130004 | 22 | 227 | 4.8 | 16.1 | 0.00 | 0.00 | 0.00 | 47 | 1005.4 |
| 20260506125504 | 22 | 230 | 3.2 | 9.7 | 0.00 | 0.00 | 0.00 | 47 | 1005.4 |
| 20260506125004 | 21 | 220 | 3.2 | 9.7 | 0.00 | 0.00 | 0.00 | 48 | 1005.5 |
| 20260506124504 | 22 | 174 | 3.2 | 20.9 | 0.00 | 0.00 | 0.00 | 48 | 1005.5 |
| 20260506124004 | 22 | 198 | 4.8 | 20.9 | 0.00 | 0.00 | 0.00 | 48 | 1005.6 |
| 20260506123504 | 22 | 228 | 4.8 | 20.9 | 0.00 | 0.00 | 0.00 | 48 | 1005.6 |
| 20260506123003 | 22 | 131 | 3.2 | 20.9 | 0.00 | 0.00 | 0.00 | 48 | 1005.7 |
| 20260506122503 | 22 | 155 | 4.8 | 20.9 | 0.00 | 0.00 | 0.00 | 48 | 1005.6 |
| 20260506122004 | 23 | 219 | 4.8 | 11.3 | 0.00 | 0.00 | 0.00 | 46 | 1005.6 |
| 20260506121503 | 23 | 215 | 4.8 | 14.5 | 0.00 | 0.00 | 0.00 | 46 | 1005.6 |
| 20260506121003 | 22 | 215 | 4.8 | 14.5 | 0.00 | 0.00 | 0.00 | 48 | 1005.7 |
| 20260506120503 | 22 | 210 | 4.8 | 14.5 | 0.00 | 0.00 | 0.00 | 46 | 1005.8 |
| 20260506120004 | 22 | 213 | 3.2 | 11.3 | 0.00 | 0.00 | 0.00 | 45 | 1005.7 |
| 20260506115504 | 22 | 212 | 3.2 | 12.9 | 0.00 | 0.00 | 0.00 | 45 | 1005.8 |
| 20260506115025 | 22 | 223 | 3.2 | 12.9 | 0.00 | 0.00 | 0.00 | 47 | 1006.0 |
| 20260506114503 | 23 | 208 | 3.2 | 11.3 | 0.00 | 0.00 | 0.00 | 46 | 1005.8 |
| 20260506114003 | 23 | 220 | 4.8 | 11.3 | 0.00 | 0.00 | 0.00 | 47 | 1005.7 |
| 20260506113504 | 22 | 218 | 4.8 | 11.3 | 0.00 | 0.00 | 0.00 | 46 | 1005.8 |
| 20260506113003 | 22 | 212 | 4.8 | 11.3 | 0.00 | 0.00 | 0.00 | 46 | 1005.8 |
| 20260506112504 | 22 | 208 | 4.8 | 11.3 | 0.00 | 0.00 | 0.00 | 47 | 1006.0 |
| 20260506112003 | 22 | 166 | 3.2 | 11.3 | 0.00 | 0.00 | 0.00 | 47 | 1005.9 |
| 20260506111503 | 22 | 158 | 1.6 | 9.7 | 0.00 | 0.00 | 0.00 | 48 | 1005.9 |
| 20260506111004 | 22 | 188 | 1.6 | 6.4 | 0.00 | 0.00 | 0.00 | 48 | 1005.9 |
| 20260506110524 | 22 | 207 | 3.2 | 11.3 | 0.00 | 0.00 | 0.00 | 48 | 1006.0 |
| 20260506110004 | 22 | 201 | 3.2 | 11.3 | 0.00 | 0.00 | 0.00 | 48 | 1006.1 |
| 20260506105503 | 22 | 155 | 3.2 | 14.5 | 0.00 | 0.00 | 0.00 | 47 | 1006.2 |
| 20260506105003 | 22 | 129 | 3.2 | 14.5 | 0.00 | 0.00 | 0.00 | 47 | 1006.1 |
| 20260506104504 | 22 | 136 | 3.2 | 9.7 | 0.00 | 0.00 | 0.00 | 47 | 1006.0 |
| 20260506104004 | 22 | 209 | 4.8 | 11.3 | 0.00 | 0.00 | 0.00 | 48 | 1006.0 |
| 20260506103504 | 22 | 231 | 4.8 | 17.7 | 0.00 | 0.00 | 0.00 | 50 | 1006.4 |
| 20260506103004 | 22 | 230 | 6.4 | 17.7 | 0.00 | 0.00 | 0.00 | 48 | 1006.3 |
| 20260506102524 | 22 | 216 | 4.8 | 17.7 | 0.00 | 0.00 | 0.00 | 48 | 1006.1 |
| 20260506102024 | 22 | 96 | 3.2 | 11.3 | 0.00 | 0.00 | 0.00 | 48 | 1006.3 |
| 20260506101503 | 22 | 97 | 4.8 | 11.3 | 0.00 | 0.00 | 0.00 | 50 | 1006.4 |
| 20260506101004 | 21 | 149 | 4.8 | 11.3 | 0.00 | 0.00 | 0.00 | 51 | 1006.5 |
| 20260506100504 | 22 | 159 | 3.2 | 11.3 | 0.00 | 0.00 | 0.00 | 49 | 1006.3 |
| 20260506100004 | 23 | 161 | 4.8 | 11.3 | 0.00 | 0.00 | 0.00 | 48 | 1006.4 |
| 20260506095503 | 22 | 208 | 3.2 | 11.3 | 0.00 | 0.00 | 0.00 | 51 | 1006.7 |
| 20260506095003 | 21 | 215 | 3.2 | 14.5 | 0.00 | 0.00 | 0.00 | 52 | 1006.5 |
| 20260506094524 | 21 | 186 | 4.8 | 14.5 | 0.00 | 0.00 | 0.00 | 53 | 1006.6 |
| 20260506094004 | 21 | 161 | 4.8 | 16.1 | 0.00 | 0.00 | 0.00 | 53 | 1006.5 |
| 20260506093503 | 21 | 207 | 3.2 | 16.1 | 0.00 | 0.00 | 0.00 | 56 | 1006.6 |
| 20260506093004 | 21 | 154 | 1.6 | 9.7 | 0.00 | 0.00 | 0.00 | 55 | 1006.5 |
| 20260506092504 | 20 | 143 | 1.6 | 6.4 | 0.00 | 0.00 | 0.00 | 56 | 1006.5 |
| 20260506092025 | 21 | 191 | 3.2 | 11.3 | 0.00 | 0.00 | 0.00 | 53 | 1006.6 |
| 20260506091503 | 21 | 181 | 4.8 | 11.3 | 0.00 | 0.00 | 0.00 | 52 | 1006.5 |
| 20260506091004 | 21 | 196 | 4.8 | 11.3 | 0.00 | 0.00 | 0.00 | 53 | 1006.6 |
| 20260506090504 | 21 | 208 | 4.8 | 11.3 | 0.00 | 0.00 | 0.00 | 55 | 1006.7 |
| 20260506090004 | 21 | 199 | 3.2 | 11.3 | 0.00 | 0.00 | 0.00 | 54 | 1006.5 |
| 20260506085504 | 21 | 167 | 3.2 | 9.7 | 0.00 | 0.00 | 0.00 | 52 | 1006.5 |
| 20260506085004 | 21 | 196 | 3.2 | 9.7 | 0.00 | 0.00 | 0.00 | 54 | 1006.5 |
| 20260506084504 | 20 | 201 | 3.2 | 12.9 | 0.00 | 0.00 | 0.00 | 56 | 1006.7 |
| 20260506084003 | 20 | 198 | 3.2 | 14.5 | 0.00 | 0.00 | 0.00 | 56 | 1006.6 |
| 20260506083503 | 21 | 201 | 4.8 | 14.5 | 0.00 | 0.00 | 0.00 | 54 | 1006.8 |
| 20260506083003 | 20 | 174 | 4.8 | 14.5 | 0.00 | 0.00 | 0.00 | 54 | 1006.7 |
| 20260506082503 | 21 | 195 | 3.2 | 11.3 | 0.00 | 0.00 | 0.00 | 54 | 1006.7 |
| 20260506082003 | 20 | 231 | 3.2 | 11.3 | 0.00 | 0.00 | 0.00 | 58 | 1006.8 |
| 20260506081525 | 19 | 222 | 4.8 | 12.9 | 0.00 | 0.00 | 0.00 | 57 | 1006.9 |
| 20260506081003 | 20 | 228 | 4.8 | 14.5 | 0.00 | 0.00 | 0.00 | 57 | 1006.9 |
| 20260506080503 | 19 | 236 | 6.4 | 16.1 | 0.00 | 0.00 | 0.00 | 58 | 1006.6 |
| 20260506073504 | 20 | 196 | 1.6 | 9.7 | 0.00 | 0.00 | 0.00 | 59 | 1006.5 |
| 20260506073004 | 18 | 225 | 3.2 | 16.1 | 0.00 | 0.00 | 0.00 | 61 | 1006.9 |
| 20260506072504 | 18 | 226 | 3.2 | 16.1 | 0.00 | 0.00 | 0.00 | 63 | 1006.9 |
| 20260506072003 | 17 | 217 | 3.2 | 16.1 | 0.00 | 0.00 | 0.00 | 64 | 1006.7 |
| 20260506071504 | 18 | 211 | 3.2 | 14.5 | 0.00 | 0.00 | 0.00 | 63 | 1006.7 |
| 20260506071025 | 18 | 201 | 3.2 | 14.5 | 0.00 | 0.00 | 0.00 | 62 | 1006.6 |
| 20260506070503 | 18 | 215 | 3.2 | 11.3 | 0.00 | 0.00 | 0.00 | 62 | 1006.7 |
| 20260506062504 | 17 | 81 | 1.6 | 4.8 | 0.00 | 0.00 | 0.00 | 72 | 1006.8 |
| 20260506062025 | 17 | 83 | 1.6 | 4.8 | 0.00 | 0.00 | 0.00 | 72 | 1006.5 |
| 20260506061503 | 17 | 82 | 1.6 | 4.8 | 0.00 | 0.00 | 0.00 | 73 | 1006.8 |
| 20260506061003 | 16 | 78 | 1.6 | 3.2 | 0.00 | 0.00 | 0.00 | 74 | 1006.7 |
| 20260506060504 | 16 | 72 | 1.6 | 3.2 | 0.00 | 0.00 | 0.00 | 75 | 1006.7 |
| 20260506051003 | 12 | 67 | 1.6 | 3.2 | 0.00 | 0.00 | 0.00 | 81 | 1006.4 |
| 20260506050504 | 12 | 62 | 1.6 | 3.2 | 0.00 | 0.00 | 0.00 | 81 | 1006.5 |
| 20260506045003 | 11 | 51 | 1.6 | 3.2 | 0.00 | 0.00 | 0.00 | 83 | 1006.3 |
| 20260506044525 | 11 | 50 | 0.0 | 3.2 | 0.00 | 0.00 | 0.00 | 83 | 1006.2 |
| 20260506044004 | 11 | 50 | 0.0 | 1.6 | 0.00 | 0.00 | 0.00 | 86 | 1006.4 |
| 20260506043503 | 10 | 50 | 0.0 | 1.6 | 0.00 | 0.00 | 0.00 | 87 | 1006.4 |
| 20260506043003 | 10 | 49 | 0.0 | 3.2 | 0.00 | 0.00 | 0.00 | 87 | 1006.3 |
| 20260506042504 | 10 | 48 | 0.0 | 3.2 | 0.00 | 0.00 | 0.00 | 89 | 1006.1 |
| 20260506042003 | 9 | 0 | 0.0 | 0.0 | 0.00 | 0.00 | 0.00 | 93 | 1006.1 |
| 20260506041503 | 8 | 37 | 0.0 | 1.6 | 0.00 | 0.00 | 0.00 | 94 | 1006.2 |
| 20260506041004 | 8 | 37 | 0.0 | 1.6 | 0.00 | 0.00 | 0.00 | 94 | 1005.9 |
| 20260506040503 | 8 | 37 | 0.0 | 1.6 | 0.00 | 0.00 | 0.00 | 94 | 1005.8 |
| 20260506040025 | 8 | 37 | 0.0 | 3.2 | 0.00 | 0.00 | 0.00 | 95 | 1005.9 |
| 20260506035504 | 8 | 37 | 0.0 | 3.2 | 0.00 | 0.00 | 0.00 | 95 | 1005.6 |
| 20260506035024 | 8 | 0 | 0.0 | 0.0 | 0.00 | 0.00 | 0.00 | 95 | 1005.9 |
| 20260506034504 | 8 | 0 | 0.0 | 0.0 | 0.00 | 0.00 | 0.00 | 94 | 1005.6 |
| 20260506034003 | 8 | 0 | 0.0 | 0.0 | 0.00 | 0.00 | 0.00 | 94 | 1005.8 |
| 20260506033504 | 8 | 0 | 0.0 | 0.0 | 0.00 | 0.00 | 0.00 | 94 | 1005.8 |
| 20260506033004 | 8 | 0 | 0.0 | 0.0 | 0.00 | 0.00 | 0.00 | 93 | 1005.9 |
| 20260506032503 | 8 | 0 | 0.0 | 0.0 | 0.00 | 0.00 | 0.00 | 93 | 1005.8 |
| 20260506032003 | 9 | 0 | 0.0 | 0.0 | 0.00 | 0.00 | 0.00 | 93 | 1005.7 |
| 20260506031503 | 9 | 37 | 0.0 | 1.6 | 0.00 | 0.00 | 0.00 | 93 | 1005.6 |
| 20260506031003 | 9 | 37 | 0.0 | 1.6 | 0.00 | 0.00 | 0.00 | 92 | 1005.6 |
| 20260506030525 | 10 | 37 | 0.0 | 1.6 | 0.00 | 0.00 | 0.00 | 92 | 1005.6 |
| 20260506030004 | 10 | 0 | 0.0 | 0.0 | 0.00 | 0.00 | 0.00 | 91 | 1005.7 |
| 20260506025504 | 10 | 0 | 0.0 | 0.0 | 0.00 | 0.00 | 0.00 | 91 | 1005.6 |
| 20260506025004 | 10 | 0 | 0.0 | 0.0 | 0.00 | 0.00 | 0.00 | 91 | 1005.8 |
| 20260506024503 | 10 | 32 | 0.0 | 1.6 | 0.00 | 0.00 | 0.00 | 90 | 1005.5 |
| 20260506024004 | 10 | 32 | 0.0 | 1.6 | 0.00 | 0.00 | 0.00 | 90 | 1005.5 |
| 20260506023504 | 10 | 19 | 0.0 | 3.2 | 0.00 | 0.00 | 0.00 | 90 | 1005.3 |
| 20260506023004 | 10 | 14 | 0.0 | 3.2 | 0.00 | 0.00 | 0.00 | 90 | 1005.4 |
| 20260506022504 | 10 | 252 | 0.0 | 1.6 | 0.00 | 0.00 | 0.00 | 91 | 1005.4 |
| 20260506022004 | 10 | 0 | 0.0 | 0.0 | 0.00 | 0.00 | 0.00 | 91 | 1005.8 |